CW0775 Weather Reports


time (UTC)temp
F
wind
direction
speed
knots
gust
knots
rain 1hr
in
rain 24hr
in
rain mn
in
humidity
%
barometer
mb
20260902104004 74 294 5.2 8.7 0.00 0.00 0.00 55 1021.0
20260902103503 73 240 1.7 4.3 0.00 0.00 0.00 57 1020.8
20260902103004 72 305 0.9 11.3 0.00 0.00 0.00 58 1021.0
20260902101504 71 273 4.3 14.8 0.00 0.00 0.00 58 1021.0
20260902101005 71 245 2.6 7.0 0.00 0.00 0.00 61 1021.1
20260902094004 70 287 3.5 7.0 0.00 0.00 0.00 63 1021.3
20260902093504 70 282 1.7 7.0 0.00 0.00 0.00 64 1021.3
20260902091506 68 246 0.0 1.7 0.00 0.00 0.00 69 1021.0
20260902091006 68 245 0.9 2.6 0.00 0.00 0.00 70 1021.0
20260902090506 68 215 1.7 4.3 0.00 0.00 0.00 69 1021.0
20260902090006 68 208 1.7 2.6 0.00 0.00 0.00 68 1021.0
20260902084506 70 212 0.9 1.7 0.00 0.00 0.00 69 1021.0
20260902084006 69 279 0.9 2.6 0.00 0.00 0.00 67 1021.3
20260902083505 68 283 0.0 4.3 0.00 0.00 0.00 68 1021.1
20260902083006 66 272 2.6 6.1 0.00 0.00 0.00 72 1021.2
20260902081505 63 236 0.0 2.6 0.00 0.00 0.00 78 1021.1
20260902081005 63 283 0.9 2.6 0.00 0.00 0.00 79 1021.0
20260902080506 63 264 0.0 2.6 0.00 0.00 0.00 78 1021.1
20260902080006 63 220 0.9 4.3 0.00 0.00 0.00 79 1021.3
20260902073506 60 258 0.9 2.6 0.00 0.00 0.00 84 1021.0
20260902073005 61 285 0.9 2.6 0.00 0.00 0.00 83 1021.0
20260902071505 59 273 1.7 4.3 0.00 0.00 0.00 87 1020.7
20260902071005 58 297 1.7 4.3 0.00 0.00 0.00 87 1020.7
20260902070506 57 293 0.0 0.0 0.00 0.00 0.00 90 1020.7
20260902070006 56 272 0.0 1.7 0.00 0.00 0.00 92 1021.0
20260902064507 53 285 0.0 2.6 0.00 0.00 0.00 93 1020.7
20260902064006 54 183 1.7 2.6 0.00 0.00 0.00 93 1020.7
20260902061506 53 252 0.0 0.0 0.00 0.00 0.00 95 1020.7
20260902060506 53 256 0.0 1.7 0.00 0.00 0.00 95 1020.7
20260902054006 52 274 0.0 1.7 0.00 0.00 0.00 96 1020.5
20260902053506 52 277 0.9 1.7 0.00 0.00 0.00 96 1020.3
20260902053005 52 252 0.0 0.0 0.00 0.00 0.00 96 1020.3
20260902050506 51 244 0.0 0.0 0.00 0.00 0.00 97 1020.7
20260902044506 51 219 0.0 0.0 0.00 0.00 0.00 97 1020.7
20260902043506 50 224 0.0 1.7 0.00 0.00 0.00 97 1020.7
20260902043005 50 274 0.0 1.7 0.00 0.00 0.00 97 1020.7
20260902041005 50 277 0.0 1.7 0.00 0.00 0.00 96 1020.3
20260902040506 50 255 0.0 0.0 0.00 0.00 0.00 96 1020.6
20260902040005 50 257 0.0 2.6 0.00 0.00 0.00 96 1020.6
20260902034505 50 278 0.9 2.6 0.00 0.00 0.00 96 1020.7
20260902034005 50 267 0.0 1.7 0.00 0.00 0.00 96 1020.7
20260902033505 50 212 0.0 1.7 0.00 0.00 0.00 96 1020.7
20260902033005 50 263 0.0 2.6 0.00 0.00 0.00 96 1020.7
20260902031505 50 283 1.7 2.6 0.00 0.00 0.00 96 1020.6
20260902031005 50 218 0.0 0.0 0.00 0.00 0.00 96 1020.7
20260902030505 50 275 0.0 0.0 0.00 0.00 0.00 96 1020.7
20260902030005 50 275 0.0 0.0 0.00 0.00 0.00 96 1020.7
20260902024505 50 275 0.0 0.0 0.00 0.00 0.00 95 1020.7
20260902024005 50 276 0.0 0.0 0.00 0.00 0.00 95 1020.7
20260902021505 51 275 0.0 0.0 0.00 0.00 0.00 95 1020.7
20260902021005 51 273 0.0 0.0 0.00 0.00 0.00 95 1020.7
20260902020505 51 251 0.0 1.7 0.00 0.00 0.00 95 1020.7
20260902020004 51 256 0.0 1.7 0.00 0.00 0.00 95 1020.7
20260902014505 51 275 1.7 2.6 0.00 0.00 0.00 95 1020.7
20260902014005 51 275 0.9 1.7 0.00 0.00 0.00 95 1020.7
20260902013505 51 276 0.9 1.7 0.00 0.00 0.00 95 1020.7
20260902013005 51 274 0.0 1.7 0.00 0.00 0.00 95 1020.7
20260902011505 51 271 0.0 0.0 0.00 0.00 0.00 95 1020.7
20260902010506 52 272 0.9 2.6 0.00 0.00 0.00 95 1020.7
20260902010005 51 275 0.0 0.0 0.00 0.00 0.00 95 1020.7
20260902004506 51 275 0.0 0.0 0.00 0.00 0.00 94 1020.7
20260902004006 51 275 0.0 0.0 0.00 0.00 0.00 94 1020.7
20260902003504 51 275 0.0 0.0 0.00 0.00 0.00 94 1020.9
20260902003005 51 275 0.0 0.0 0.00 0.00 0.00 94 1020.7
20260902001505 52 273 0.0 0.0 0.00 0.00 0.00 94 1021.0
20260902000506 52 273 0.0 0.0 0.00 0.00 0.00 94 1021.0
20260902000005 52 273 0.0 0.0 0.00 0.00 0.00 93 1020.7
20260901234505 53 273 0.0 0.0 0.00 0.00 0.00 93 1021.0
20260901234005 53 273 0.0 0.0 0.00 0.00 0.00 93 1021.0
20260901233505 53 273 0.0 0.0 0.00 0.00 0.00 93 1021.0
20260901233005 53 273 0.0 0.0 0.00 0.00 0.00 92 1021.0
20260901231505 53 273 0.0 0.0 0.00 0.00 0.00 92 1021.0
20260901231004 53 273 0.0 0.0 0.00 0.00 0.00 92 1021.0
20260901224505 53 273 0.0 0.0 0.00 0.00 0.00 91 1021.0
20260901224004 54 273 0.0 1.7 0.00 0.00 0.00 91 1021.0
20260901223504 54 270 1.7 2.6 0.00 0.00 0.00 91 1021.0
20260901221504 55 278 0.0 1.7 0.00 0.00 0.00 90 1021.0
20260901221004 54 272 0.0 1.7 0.00 0.00 0.00 90 1020.9
20260901220506 54 273 0.0 1.7 0.00 0.00 0.00 90 1021.0
20260901214505 55 274 0.0 0.0 0.00 0.00 0.00 89 1021.0
20260901214005 55 276 0.0 0.0 0.00 0.00 0.00 89 1020.7
20260901213505 56 276 0.0 2.6 0.00 0.00 0.00 89 1021.0
20260901211504 56 259 0.0 0.0 0.00 0.00 0.00 88 1020.7
20260901210505 56 250 0.0 0.0 0.00 0.00 0.00 88 1020.7
20260901210005 56 277 0.0 0.0 0.00 0.00 0.00 88 1020.7
20260901204506 56 277 0.0 0.0 0.00 0.00 0.00 87 1020.7
20260901204004 56 277 0.0 0.0 0.00 0.00 0.00 87 1020.7
20260901203504 57 277 0.0 2.6 0.00 0.00 0.00 86 1020.5
20260901203004 57 275 0.9 1.7 0.00 0.00 0.00 86 1020.7
20260901201504 58 275 0.0 0.0 0.00 0.00 0.00 85 1020.7
20260901201005 58 275 0.0 0.0 0.00 0.00 0.00 84 1020.7
20260901200505 58 275 0.0 0.0 0.00 0.00 0.00 84 1020.7
20260901200004 58 275 0.0 0.0 0.00 0.00 0.00 84 1020.7
20260901194505 59 275 0.0 0.0 0.00 0.00 0.00 82 1020.7
20260901194005 59 275 0.0 0.0 0.00 0.00 0.00 81 1020.7
20260901193005 59 275 0.0 0.0 0.00 0.00 0.00 80 1020.7
20260901191504 60 275 0.0 0.0 0.00 0.00 0.00 78 1020.4
20260901191004 60 275 0.0 0.0 0.00 0.00 0.00 78 1020.5
20260901190506 60 275 0.0 1.7 0.00 0.00 0.00 77 1020.7
20260901190005 61 276 0.0 1.7 0.00 0.00 0.00 77 1020.6
20260901184505 61 270 0.0 0.0 0.00 0.00 0.00 77 1020.3
20260901183504 62 274 0.0 0.0 0.00 0.00 0.00 75 1020.3
20260901183005 63 274 0.0 1.7 0.00 0.00 0.00 74 1020.1
20260901181504 65 273 0.9 1.7 0.00 0.00 0.00 69 1020.0
20260901181005 66 273 0.9 2.6 0.00 0.00 0.00 67 1020.0
20260901180506 67 273 1.7 2.6 0.00 0.00 0.00 65 1020.0
20260901180005 67 270 0.9 1.7 0.00 0.00 0.00 65 1020.0
20260901174505 69 268 0.9 1.7 0.00 0.00 0.00 60 1019.9
20260901174008 70 261 0.0 1.7 0.00 0.00 0.00 57 1019.8
20260901173504 71 260 0.0 0.0 0.00 0.00 0.00 56 1019.6
20260901171005 73 280 1.7 4.3 0.00 0.00 0.00 52 1019.6
20260901170505 73 270 0.9 4.3 0.00 0.00 0.00 52 1019.6
20260901170005 72 278 0.9 2.6 0.00 0.00 0.00 51 1019.6
20260901164005 74 289 2.6 11.3 0.00 0.00 0.00 49 1019.6
20260901163504 73 263 4.3 11.3 0.00 0.00 0.00 49 1019.6
20260901163004 73 160 1.7 6.1 0.00 0.00 0.00 52 1019.7
20260901161505 73 270 3.5 12.2 0.00 0.00 0.00 51 1019.6
20260901161004 73 279 3.5 6.1 0.00 0.00 0.00 51 1019.8
20260901160505 73 264 1.7 13.0 0.00 0.00 0.00 53 1019.7
20260901160004 73 286 5.2 13.0 0.00 0.00 0.00 50 1019.6
20260901154505 74 228 2.6 8.7 0.00 0.00 0.00 52 1020.0
20260901154005 74 282 5.2 12.2 0.00 0.00 0.00 50 1019.9
20260901153005 74 299 5.2 13.0 0.00 0.00 0.00 51 1019.6
20260901151504 73 289 3.5 11.3 0.00 0.00 0.00 52 1019.6
20260901151004 75 280 5.2 13.0 0.00 0.00 0.00 51 1019.8
20260901150506 74 321 6.1 13.0 0.00 0.00 0.00 49 1019.6
20260901150005 73 278 2.6 7.0 0.00 0.00 0.00 52 1020.0
20260901144505 74 260 5.2 11.3 0.00 0.00 0.00 50 1019.6
20260901144005 75 275 3.5 13.0 0.00 0.00 0.00 49 1019.8
20260901143504 75 279 9.6 13.0 0.00 0.01 0.00 49 1019.6
20260901143004 75 280 7.0 12.2 0.00 0.03 0.00 50 1019.6
20260901141504 75 357 1.7 6.1 0.00 0.05 0.00 51 1020.0
20260901141004 74 285 5.2 11.3 0.00 0.05 0.00 51 1019.9
20260901140505 74 319 4.3 12.2 0.00 0.05 0.00 52 1019.8
20260901140005 75 204 7.8 12.2 0.00 0.05 0.00 50 1020.0
20260901134505 75 323 2.6 8.7 0.00 0.05 0.00 52 1020.0
20260901134005 75 230 4.3 7.0 0.00 0.05 0.00 50 1020.0
20260901133504 75 269 5.2 12.2 0.00 0.05 0.00 51 1020.0
20260901131504 75 289 7.0 11.3 0.00 0.05 0.00 50 1019.7
20260901130004 75 302 7.8 12.2 0.00 0.05 0.00 51 1020.1
20260901124506 74 279 6.1 12.2 0.00 0.05 0.00 53 1020.4
20260901124004 73 277 4.3 8.7 0.00 0.05 0.00 51 1020.3
20260901123004 73 2 2.6 11.3 0.00 0.05 0.00 56 1020.3
20260901121504 72 290 5.2 11.3 0.00 0.05 0.00 59 1020.3
20260901121005 73 264 0.0 7.0 0.00 0.05 0.00 61 1020.4
20260901120504 73 268 4.3 13.0 0.00 0.05 0.00 59 1020.7
20260901120004 73 288 7.0 13.0 0.00 0.05 0.00 55 1020.7
20260901114504 70 291 1.7 11.3 0.00 0.05 0.00 63 1020.5
20260901114004 70 274 2.6 6.1 0.00 0.05 0.00 63 1020.7
20260901113505 70 270 2.6 7.0 0.00 0.05 0.00 64 1020.7
20260901111504 70 279 1.7 6.1 0.00 0.05 0.00 66 1020.7
20260901111004 71 268 3.5 6.1 0.00 0.05 0.00 65 1020.7
20260901110505 71 184 1.7 4.3 0.00 0.06 0.00 67 1020.6
20260901110004 72 169 1.7 4.3 0.00 0.07 0.00 63 1020.7
20260901104504 70 276 3.5 6.1 0.00 0.07 0.00 66 1020.7